Vorticity
4 2 3 5 5 5 9 9 9 8 9 14 13 23 23 29 2 8 7 -16 42 22 23 22 16 12 9 9 9 9 8 8 7 6 9 11 14 11 7 14 7 24 29
1 2 5 4 5 6 8 10 10 11 14 23 27 34 13 30 3 16 35 31 11 12 10 8 8 9 9 6 7 8 9 12 11 11 8 7 8 12 14 8 11 26 10
2 5 4 5 4 10 11 10 10 13 32 17 26 16 22 -2 -15 38 34 15 8 11 11 9 7 6 8 10 13 17 19 19 19 19 19 15 9 10 11 19 11 27 -5
4 6 6 5 9 9 11 10 18 27 18 23 29 32 2 -0 47 9 6 12 12 8 7 8 13 19 21 20 19 18 19 19 18 17 23 23 18 12 11 8 15 7 16
6 5 5 8 11 10 10 20 24 26 23 36 30 10 44 29 5 10 15 9 8 10 19 22 21 18 17 17 18 17 17 19 19 18 15 23 24 19 14 13 9 18 20
6 5 8 12 10 11 16 24 37 29 32 41 10 2 6 9 7 13 10 7 18 19 21 13 23 35 32 30 27 23 20 16 13 11 10 13 27 20 19 13 13 8 16
6 8 12 9 10 14 25 38 32 32 39 13 20 6 9 9 12 9 12 14 20 18 16 30 15 11 17 31 31 24 23 22 20 22 10 12 22 22 19 18 14 10 14
9 10 11 7 11 25 41 37 31 25 14 4 11 6 8 11 8 11 14 18 19 22 16 3 9 14 12 10 32 31 20 19 16 16 11 13 21 23 21 18 14 11 15
9 9 8 10 23 38 38 31 1 14 11 10 4 3 10 10 8 20 14 22 23 15 5 9 15 20 21 15 19 30 30 26 19 18 20 22 19 24 19 16 15 12 13
8 12 7 22 38 35 31 17 5 7 9 2 5 8 11 5 14 13 18 20 20 8 8 16 19 21 25 22 14 21 25 22 24 22 23 18 24 21 16 16 16 15 10
12 7 20 34 33 31 20 9 9 13 8 4 5 10 10 5 21 9 20 24 14 8 13 15 15 18 23 26 24 16 21 23 20 20 22 28 24 18 14 19 17 13 9
6 17 31 30 27 25 15 6 8 13 8 5 6 12 9 6 22 8 21 23 9 9 12 11 9 11 13 27 22 23 30 28 26 25 25 20 15 16 18 17 17 16 15
11 26 30 27 23 19 10 7 12 11 8 5 6 11 8 10 21 9 21 22 9 10 11 8 8 9 11 16 23 19 25 25 24 22 19 17 16 15 17 20 18 14 10
22 29 29 29 19 14 9 7 8 9 8 6 7 10 8 11 20 9 18 20 11 8 9 9 7 9 11 12 18 20 18 19 18 15 14 14 11 6 4 5 10 20 25
23 27 30 27 15 12 9 7 6 10 10 10 9 8 8 11 21 7 13 19 18 6 9 7 5 6 8 10 11 16 23 14 9 7 5 8 15 21 22 21 17 12 11
24 24 30 18 15 11 14 9 6 10 10 8 10 7 7 11 22 10 11 20 20 11 8 8 8 8 8 9 11 11 12 18 22 21 18 14 11 9 9 8 6 6 5
27 23 20 16 17 11 15 11 12 12 12 7 8 6 7 12 20 17 6 14 21 19 7 7 6 6 9 9 10 9 9 11 10 10 10 7 6 7 6 6 6 6 8
26 23 20 16 14 15 14 11 12 13 10 8 8 5 7 13 17 25 9 7 15 21 19 8 5 5 5 10 10 12 9 9 8 9 8 7 8 7 6 6 6 5 5
21 21 15 14 14 11 9 11 14 16 7 9 6 6 9 13 18 20 22 4 7 17 21 17 11 4 5 6 8 12 13 11 9 10 9 5 4 7 9 7 6 6 6
17 20 11 10 11 11 13 13 16 10 10 9 5 7 9 12 16 19 21 17 5 7 15 24 16 16 6 4 2 2 6 13 14 12 12 12 9 5 5 7 7 6 7
15 21 13 9 11 13 16 13 12 11 11 7 6 6 8 12 13 16 18 17 13 7 11 15 23 19 19 11 5 -0 0 3 5 12 14 12 13 12 9 7 8 6 5
14 16 18 14 13 18 11 8 12 14 10 6 6 6 7 8 12 15 17 15 15 14 9 13 16 21 23 16 17 10 3 -0 1 4 4 7 10 13 15 12 7 6 7
15 13 17 16 18 13 8 5 9 15 10 8 7 6 6 6 8 12 15 19 16 13 11 10 15 18 22 21 18 18 18 11 5 2 3 4 4 4 7 11 12 10 10
16 12 12 14 10 13 6 7 5 13 11 8 6 7 7 5 5 8 10 16 19 16 13 12 11 16 19 19 19 18 18 20 18 10 6 5 5 5 5 6 5 6 7
19 11 8 11 12 6 11 10 9 11 14 6 7 9 6 7 4 6 7 8 13 22 15 13 12 12 16 19 20 16 14 18 19 23 16 11 8 7 5 6 6 5 6
18 17 13 10 8 7 8 9 9 8 15 7 7 9 8 7 4 6 6 9 6 8 22 16 13 12 12 16 20 20 16 13 16 17 20 22 16 12 11 9 8 7 7
Height
5689 5680 5671 5661 5649 5637 5624 5609 5595 5581 5564 5547 5534 5520 5507 5497 5488 5481 5471 5462 5451 5442 5437 5433 5429 5427 5425 5422 5419 5417 5415 5411 5410 5414 5414 5417 5416 5417 5420 5423 5427 5431 5437
5678 5667 5656 5643 5630 5616 5600 5585 5568 5555 5541 5525 5512 5501 5491 5481 5473 5465 5456 5448 5439 5432 5427 5422 5417 5413 5410 5405 5402 5400 5397 5395 5391 5394 5396 5399 5401 5402 5405 5408 5412 5418 5425
5663 5651 5638 5624 5608 5594 5579 5563 5546 5530 5516 5503 5492 5485 5476 5465 5458 5450 5441 5434 5427 5420 5414 5408 5402 5397 5393 5387 5382 5380 5377 5376 5374 5374 5378 5380 5382 5387 5391 5393 5398 5404 5412
5647 5635 5620 5605 5590 5573 5557 5541 5524 5510 5496 5486 5476 5467 5460 5454 5447 5438 5430 5423 5415 5408 5400 5392 5385 5377 5371 5365 5361 5359 5358 5358 5357 5355 5359 5360 5362 5368 5373 5378 5383 5390 5397
5631 5616 5600 5583 5567 5550 5534 5520 5504 5491 5479 5469 5461 5457 5450 5443 5435 5427 5419 5411 5403 5394 5385 5376 5367 5360 5353 5346 5342 5341 5340 5340 5340 5340 5342 5342 5345 5350 5356 5363 5370 5377 5383
5610 5594 5579 5565 5549 5531 5515 5501 5486 5474 5462 5455 5450 5446 5439 5433 5425 5417 5408 5400 5390 5380 5370 5361 5352 5343 5335 5327 5323 5320 5321 5322 5323 5324 5327 5328 5330 5333 5339 5348 5357 5364 5371
5591 5577 5562 5547 5531 5516 5498 5482 5469 5460 5451 5446 5442 5437 5431 5423 5415 5406 5396 5387 5377 5367 5358 5349 5342 5332 5322 5314 5307 5304 5304 5304 5306 5309 5314 5316 5317 5320 5326 5336 5344 5351 5359
5577 5561 5545 5529 5513 5496 5480 5467 5459 5452 5445 5440 5435 5430 5422 5414 5405 5396 5386 5377 5367 5357 5349 5342 5334 5325 5315 5306 5297 5292 5291 5290 5292 5296 5301 5303 5306 5309 5315 5324 5332 5341 5348
5558 5543 5528 5510 5494 5479 5468 5459 5452 5446 5439 5434 5429 5423 5414 5405 5396 5387 5378 5369 5359 5351 5344 5335 5326 5317 5307 5298 5291 5285 5281 5279 5282 5285 5289 5292 5296 5301 5307 5316 5324 5332 5340
5541 5527 5511 5494 5478 5467 5458 5453 5447 5440 5435 5429 5423 5415 5407 5398 5388 5379 5371 5362 5355 5348 5339 5330 5320 5310 5301 5293 5286 5280 5276 5274 5274 5276 5281 5285 5289 5295 5302 5310 5317 5325 5331
5522 5508 5492 5476 5465 5456 5451 5446 5440 5434 5429 5423 5416 5408 5399 5390 5380 5371 5363 5357 5350 5344 5336 5327 5318 5308 5298 5289 5282 5277 5273 5271 5272 5274 5277 5281 5286 5293 5299 5305 5312 5319 5324
5505 5491 5476 5464 5455 5448 5443 5438 5433 5428 5422 5415 5408 5400 5393 5383 5374 5366 5358 5352 5346 5340 5333 5326 5317 5309 5300 5290 5283 5277 5273 5271 5271 5273 5276 5280 5285 5291 5297 5303 5309 5314 5318
5490 5477 5464 5453 5446 5441 5436 5431 5426 5420 5415 5409 5402 5394 5387 5378 5368 5361 5353 5348 5343 5337 5331 5325 5318 5310 5302 5294 5286 5281 5277 5275 5275 5276 5279 5282 5287 5292 5297 5302 5306 5310 5314
5476 5463 5452 5444 5438 5433 5429 5425 5420 5414 5408 5402 5395 5388 5381 5372 5364 5357 5350 5344 5339 5335 5330 5324 5318 5312 5306 5299 5292 5287 5283 5282 5281 5282 5284 5287 5290 5294 5298 5302 5305 5307 5310
5462 5451 5442 5435 5430 5426 5422 5418 5413 5408 5402 5396 5390 5383 5376 5367 5359 5353 5347 5341 5336 5333 5328 5324 5319 5314 5309 5303 5298 5294 5290 5288 5287 5288 5289 5291 5293 5295 5298 5300 5303 5306 5308
5452 5442 5433 5428 5423 5419 5415 5411 5406 5401 5396 5390 5384 5377 5370 5362 5355 5349 5343 5337 5333 5330 5326 5323 5319 5315 5311 5307 5303 5300 5297 5295 5293 5292 5293 5293 5295 5298 5300 5303 5305 5307 5309
5443 5434 5426 5421 5416 5412 5408 5404 5399 5394 5389 5384 5378 5373 5365 5358 5351 5344 5339 5334 5329 5326 5323 5321 5318 5315 5312 5309 5306 5303 5301 5300 5298 5297 5297 5298 5299 5301 5302 5304 5305 5306 5308
5433 5425 5418 5413 5409 5405 5401 5398 5393 5389 5383 5378 5373 5368 5361 5354 5346 5340 5335 5331 5326 5322 5319 5317 5315 5313 5311 5309 5306 5304 5303 5301 5301 5300 5300 5301 5301 5302 5303 5304 5305 5306 5307
5424 5417 5411 5406 5402 5398 5395 5391 5387 5383 5379 5374 5369 5363 5356 5349 5342 5336 5331 5327 5323 5318 5315 5312 5311 5310 5309 5307 5305 5304 5302 5301 5300 5300 5300 5300 5301 5302 5303 5304 5305 5305 5306
5415 5409 5404 5400 5396 5392 5388 5384 5380 5377 5373 5368 5363 5358 5352 5344 5337 5331 5326 5322 5319 5315 5311 5308 5306 5304 5304 5304 5303 5302 5300 5299 5298 5298 5298 5298 5299 5299 5300 5301 5302 5303 5303
5407 5401 5397 5393 5389 5385 5381 5378 5374 5371 5367 5363 5358 5353 5347 5341 5334 5327 5322 5318 5314 5311 5307 5303 5300 5298 5297 5297 5297 5297 5297 5296 5296 5295 5295 5295 5295 5295 5296 5297 5298 5298 5298
5398 5394 5390 5386 5382 5378 5375 5372 5368 5365 5361 5357 5353 5349 5343 5337 5330 5324 5319 5314 5310 5306 5302 5299 5295 5292 5290 5289 5289 5289 5290 5291 5291 5291 5291 5291 5291 5291 5291 5292 5292 5293 5293
5390 5387 5382 5379 5375 5372 5369 5366 5363 5359 5356 5352 5348 5344 5339 5334 5328 5322 5315 5310 5305 5301 5297 5293 5290 5287 5284 5281 5280 5280 5280 5281 5283 5284 5284 5285 5285 5286 5286 5286 5287 5287 5288
5382 5380 5376 5372 5369 5366 5363 5360 5357 5353 5350 5347 5343 5339 5334 5330 5324 5319 5313 5307 5301 5296 5292 5288 5285 5281 5277 5275 5273 5272 5271 5271 5272 5273 5275 5276 5277 5278 5279 5280 5280 5281 5281
5375 5372 5369 5366 5363 5359 5356 5353 5350 5347 5343 5340 5337 5333 5329 5324 5320 5315 5309 5304 5298 5292 5287 5283 5279 5275 5272 5268 5266 5264 5263 5262 5262 5263 5264 5265 5266 5268 5269 5270 5271 5272 5272
5368 5364 5361 5358 5355 5352 5349 5346 5343 5340 5336 5333 5330 5326 5322 5318 5314 5309 5305 5299 5294 5288 5283 5277 5273 5269 5265 5262 5259 5256 5255 5254 5253 5253 5254 5254 5255 5256 5257 5259 5260 5261 5262